Regional Weather Roundup
Issued by NWS

Home | Current Version | Previous Version | Graphics & Text | Print | Product List | Glossary On
Versions: 1 2 3 4 5 6 7 8 9 10 11 12 13 14 15 16 17 18 19 20 21 22 23 24 25 26 27 28 29 30 31 32 33 34 35 36 37 38 39 40 41 42 43 44 45 46 47 48 49 50
009
ASUS43 KLOT 111403
RWRIL

ILLINOIS REGIONAL WEATHER ROUNDUP
NATIONAL WEATHER SERVICE CHICAGO/ROMEOVILLE IL
800 AM CST THU FEB 11 2016

NOTE: "FAIR" INDICATES FEW OR NO CLOUDS BELOW 12,000 FEET WITH NO
SIGNIFICANT WEATHER AND/OR OBSTRUCTIONS TO VISIBILITY.

* THESE STATIONS ARE NOT UNDER NWS QUALITY CONTROL. THEY ALSO MAY NOT
  REPORT WEATHER SUCH AS PRECIPITATION OR FOG.

ILZ001-002-007-009-015-016-024-111500-
NORTHWEST ILLINOIS

CITY           SKY/WX    TMP DP  RH WIND       PRES   REMARKS
MOLINE         PTCLDY    12   0  58 N7        30.35R WCI   1
STERLING*      CLEAR     10   0  61 N5        30.30R WCI   2
$$

ILZ003-004-008-010-011-017-018-111500-
NORTH CENTRAL ILLINOIS

CITY           SKY/WX    TMP DP  RH WIND       PRES   REMARKS
ROCKFORD       CLEAR      8   0  69 NW7       30.33R WCI  -3
FREEPORT*      PTCLDY     6  -1  75 NW3       30.33R
ROCHELLE*      PTCLDY     8   1  72 N7        30.31S WCI  -3
DE KALB*       PTCLDY     8   0  70 NW7       30.29S WCI  -4
$$

ILZ005-006-012>014-019>023-111500-
NORTHEAST ILLINOIS

CITY           SKY/WX    TMP DP  RH WIND       PRES   REMARKS
CHICAGO-OHARE  MOSUNNY    8  -2  63 NW10      30.29R WCI  -6
CHICAGO-MIDWAY MOSUNNY   11  -3  53 NW10      30.29R WCI  -3
AURORA         SUNNY      8   1  73 NW6       30.30R WCI  -2
LANSING*       SUNNY     11   0  59 NW5       30.29S WCI   3
WAUKEGAN       SUNNY      7  -2  66 NW7       30.28R WCI  -5
DUPAGE AIRPORT SUNNY      7  -3  64 N7        30.28R WCI  -5
WHEELING       SUNNY      7  -2  66 NW10      30.31R WCI  -8
MORRIS*        MOSUNNY   10   2  71 N6        30.28R WCI   0
NORTHERLY ISL    N/A     12   1  61 W8          N/A  WCI   1
$$

LMZ740>746-111500-
SOUTHERN LAKE MICHIGAN

STATION/POSITION SKY/WX   TEMP    WIND        PRES    VSBY  WAVE
                          AIR SEA DIR/SP/G                  HT/PER
                          (F)     (DEG/KT/KT) (MB)    (MI)  (FT/S)
HARRISON CRIB              11     300/ 14/ 17   N/A
BURNHAM HARBOR             12     290/  8/ 11   N/A
CALUMET HARBOR             10     280/  7/ 10 1024.5R
MICHIGAN CITY              18     300/ 19/ 23   N/A
$$

ILZ025>027-034>036-040-047-049-050-058-095>099-111500-
WEST-CENTRAL ILLINOIS

CITY           SKY/WX    TMP DP  RH WIND       PRES   REMARKS
QUINCY         CLOUDY     8   2  76 NE6       30.32R WCI  -2
MACOMB*        PTCLDY    11   6  79 N6        30.35R WCI   1
$$

ILZ028>032-037-038-041>044-048-051>054-059>061-111500-
CENTRAL ILLINOIS

CITY           SKY/WX    TMP DP  RH WIND       PRES   REMARKS
BLOOMINGTON    SUNNY     12   6  77 N6        30.30R WCI   3
DECATUR        CLOUDY    14   5  67 NE5       30.32R WCI   6
PEORIA         CLEAR     12   3  67 N5        30.33R WCI   4
LACON*         CLEAR     11   4  72 CALM      30.33R
LINCOLN*       CLOUDY    13   8  78 CALM      30.32R
SPRINGFIELD    MOSUNNY   14   6  70 NE6       30.33R WCI   5
TAYLORVILLE    NOT AVBL
$$

ILZ033-039-045-046-055>057-062-063-111500-
EAST-CENTRAL ILLINOIS

CITY           SKY/WX    TMP DP  RH WIND       PRES   REMARKS
CHAMPAIGN      SUNNY     13   5  70 NW3       30.30R
MATTOON        CLOUDY    13   5  70 N7        30.30R WCI   3
$$

ILZ079-100>102-111500-
SOUTHWEST ILLINOIS

CITY           SKY/WX    TMP DP  RH WIND       PRES   REMARKS
BELLEVILLE     PTSUNNY   22  18  84 NE5       30.30R WCI  16
CAHOKIA*       CLOUDY    23  16  74 NE8       30.31R WCI  14
SPARTA*        CLOUDY    21  17  84 NE7       30.29R WCI  13
$$

ILZ064>066-069>071-074>076-080>082-084>086-088>090-092>094-111500-
SOUTH-CENTRAL ILLINOIS

CITY           SKY/WX    TMP DP  RH WIND       PRES   REMARKS
CARBONDALE     CLOUDY    23  17  78 NE6       30.29R WCI  16
CAIRO*         SUNNY     26  23  88 NE9       30.26R WCI  17
MARION         CLOUDY    25  19  80 NE8       30.29R WCI  16
MT. VERNON     CLOUDY    21  16  79 NE6       30.30R WCI  14
CENTRALIA*     CLOUDY    23  19  85 NE3       30.30R
SALEM*         CLOUDY    22  14  70 NE7       30.30R WCI  14
$$

ILZ067-068-072-073-078-083-087-091-111500-
SOUTHEAST ILLINOIS

CITY           SKY/WX    TMP DP  RH WIND       PRES   REMARKS
LAWRENCEVILLE  CLOUDY    19   9  65 NE5       30.32R WCI  12
HARRISBURG*    CLOUDY    24  20  85 NE6       30.29R WCI  16
ROBINSON*      MOSUNNY   17   9  70 N5        30.33R WCI  10
CARMI*         CLOUDY    23  19  83 NE7       30.30R WCI  15
$$

ABBREVIATIONS USED IN REMARKS
   TC - TEMPERATURE IN CELSIUS
  WCI - WIND CHILL INDEX
   HX - HEAT INDEX
  VSB - VISIBILITY
$$





USA.gov is the U.S. government's official web portal to all federal, state and local government web resources and services.